Theta_e
330 328 326 325 325 324 325 325 323 322 322 322 322 321 321 321 321 321 321 320 320 319 318 317 316 316 313 310 308 307 307 308 307 308 310 309 308 307 306 307 310 312 312 312 313 312 311 310 309 308 307 307 304 299 298 297 298 299 297 296 296 295 295 295 295 294 294 293 293 293 292 292 292 292 292 293 293 295 296 297 298 299 300 301 301
331 330 327 326 325 325 325 326 324 322 323 322 322 322 321 321 321 321 320 320 320 319 318 317 316 314 310 307 305 305 305 305 305 306 306 306 305 304 303 303 304 305 306 308 309 310 310 309 308 308 306 306 304 300 299 300 300 299 297 297 295 294 295 294 294 293 293 293 292 292 292 292 292 292 292 293 294 294 296 299 300 298 299 300 300
330 331 328 326 326 325 325 326 325 323 323 323 323 322 322 322 321 321 321 320 319 318 318 317 316 312 309 306 304 304 304 304 304 304 304 303 302 302 301 302 301 301 300 301 302 304 304 302 305 306 304 305 304 301 301 302 302 299 298 297 295 296 295 294 293 292 292 292 292 292 292 292 292 292 293 293 294 293 293 297 299 297 299 300 298
329 331 329 327 326 326 326 326 325 324 324 323 323 323 323 322 322 321 321 320 319 319 318 317 316 312 309 307 304 303 304 303 303 303 303 302 302 302 302 301 300 299 298 298 298 298 297 296 299 299 300 303 303 304 302 302 302 300 299 298 297 298 297 294 292 291 292 291 291 292 292 292 292 292 292 292 292 292 292 294 295 295 298 299 298
329 331 330 328 327 327 327 326 326 325 325 324 323 323 323 323 322 321 321 320 319 319 318 318 317 311 309 308 304 303 304 303 303 303 302 302 302 302 301 301 299 298 297 297 297 296 296 296 296 295 296 298 301 304 304 302 301 299 299 299 298 298 296 293 292 291 291 291 291 291 291 291 292 292 291 292 291 291 292 293 293 295 297 298 297
327 330 330 329 328 327 327 327 327 326 325 325 324 323 323 322 322 322 322 320 319 319 318 318 317 311 308 308 304 303 304 303 303 303 302 302 302 302 301 300 298 297 297 296 296 296 296 295 295 295 294 295 298 301 302 302 299 298 299 299 298 295 293 292 291 291 291 291 291 291 291 291 291 291 291 291 291 290 291 291 292 295 297 297 296
327 328 329 329 328 327 327 328 328 326 326 325 324 323 322 322 322 323 323 321 320 319 318 318 317 312 307 306 304 303 304 303 303 303 303 302 302 301 300 299 298 297 296 296 296 295 295 295 295 295 294 294 295 297 300 299 298 298 299 300 298 293 291 291 290 291 290 290 291 291 292 292 291 291 290 290 290 290 290 290 290 293 295 295 294
328 328 329 329 327 327 327 329 329 327 326 325 324 323 323 322 322 323 323 322 321 320 319 318 317 313 307 304 303 303 303 303 303 303 303 302 302 301 299 299 297 296 296 295 295 295 295 295 294 294 294 294 293 293 296 297 297 298 298 299 299 295 291 290 290 290 290 290 291 291 291 291 290 290 290 290 290 290 290 290 290 292 293 295 295
331 330 329 328 326 326 327 329 329 328 326 325 325 324 323 323 322 323 323 323 322 320 320 319 316 311 306 304 303 304 303 303 303 303 303 302 302 301 299 298 297 296 296 295 295 295 295 294 294 294 293 293 293 292 293 293 295 297 298 299 299 296 291 289 290 289 290 290 290 290 290 290 290 289 290 290 289 290 290 290 291 293 295 296 296
330 328 330 330 328 327 327 329 329 328 327 326 326 325 324 324 324 324 323 323 322 321 320 319 316 309 305 304 303 304 303 303 303 303 303 302 302 300 299 298 297 296 295 295 295 294 294 294 294 294 293 293 292 292 292 291 292 294 297 299 299 297 292 289 289 289 289 290 289 290 289 289 289 289 289 289 289 290 290 290 291 294 296 297 296
326 325 329 331 330 329 328 329 329 328 327 327 326 325 325 324 325 324 323 323 322 321 320 319 317 311 306 305 303 304 303 303 303 303 303 303 301 300 299 298 297 296 295 295 294 294 294 294 294 293 293 292 292 292 291 291 291 290 295 298 298 298 295 291 289 289 289 289 289 289 289 289 289 289 289 289 289 289 290 291 292 295 296 296 296
324 323 328 330 328 328 328 328 329 328 328 327 327 326 325 324 324 324 323 323 322 320 319 319 317 313 309 306 304 304 304 303 303 303 303 303 302 300 299 298 296 295 295 294 294 294 294 293 293 293 292 292 291 291 291 291 291 289 291 296 298 297 296 294 290 288 289 288 289 289 289 289 289 289 289 289 288 289 292 293 294 295 295 296 296
324 325 329 329 325 324 326 327 328 329 328 327 327 327 325 324 324 323 322 322 322 320 319 318 317 313 310 307 304 304 304 303 303 303 303 302 302 300 299 298 296 295 294 294 293 293 293 293 292 292 292 291 291 291 291 290 290 290 289 292 296 297 297 296 292 288 288 288 288 289 289 289 289 289 288 288 288 289 292 294 294 294 294 295 295
326 325 326 325 323 324 325 326 328 328 328 327 327 327 325 324 324 323 321 321 321 319 319 318 316 314 310 305 304 304 304 304 304 303 303 302 301 300 299 297 296 295 294 293 293 293 293 292 292 292 291 291 291 291 291 290 290 290 289 289 292 294 295 296 293 288 288 288 288 289 289 289 288 288 288 288 288 288 291 293 293 293 292 293 293
325 323 324 324 325 325 324 326 327 327 328 328 326 326 326 324 323 322 321 321 319 319 319 317 316 314 308 304 304 304 303 303 303 303 303 302 300 299 297 297 295 294 293 293 293 292 292 292 292 291 291 291 291 291 290 290 289 289 289 289 289 290 292 293 291 289 288 288 289 289 288 288 288 288 288 288 288 288 290 291 290 290 289 290 290
324 322 325 328 327 325 325 326 328 328 328 328 327 326 325 324 323 322 322 321 320 319 318 316 315 313 306 303 303 302 302 303 303 302 302 301 299 298 297 296 295 293 293 292 292 292 292 292 291 291 291 291 291 291 290 290 290 289 289 289 288 288 289 289 289 288 288 288 288 288 288 288 288 288 288 287 288 287 288 289 289 289 288 288 289
325 321 324 328 328 327 326 326 328 328 328 327 327 325 325 325 324 323 322 322 321 320 318 316 315 312 305 303 303 301 302 302 302 300 300 299 298 297 296 295 294 293 293 292 292 291 291 291 291 291 290 291 290 290 290 290 289 289 288 288 288 288 288 288 288 288 288 288 288 288 288 288 288 288 287 287 287 287 287 288 288 288 287 288 290
323 321 324 328 329 328 326 326 326 326 326 326 325 324 324 324 324 323 322 322 321 320 319 317 316 313 306 303 303 303 303 302 300 299 298 297 297 297 296 294 294 293 292 292 291 291 291 291 290 290 290 290 290 290 290 289 289 288 288 288 288 288 288 288 288 288 288 288 288 288 288 288 288 287 287 287 287 287 287 287 287 287 287 288 290
322 324 327 329 328 326 324 324 324 323 323 323 323 322 322 323 325 323 322 322 320 320 320 318 317 314 308 304 304 303 304 303 301 299 297 296 297 296 295 294 294 293 292 292 291 291 291 290 290 290 290 289 290 289 289 289 288 288 288 288 288 288 288 288 288 288 288 288 288 288 288 288 287 287 287 287 287 286 286 287 286 287 287 288 289
325 328 328 328 326 324 322 322 322 321 320 320 321 320 320 323 325 323 322 322 320 319 320 318 317 316 310 305 304 303 302 301 300 300 298 297 297 296 295 295 294 293 292 291 291 291 290 290 290 289 289 289 289 289 289 288 288 288 287 288 288 288 287 287 288 288 288 288 287 287 287 287 287 287 286 286 286 286 286 286 286 288 288 288 288
328 329 327 327 325 323 322 321 320 319 318 318 319 319 320 323 323 321 322 322 320 319 319 318 317 317 312 306 304 303 301 300 299 299 298 297 296 296 295 295 293 293 293 292 291 291 290 290 290 289 289 289 289 289 289 288 288 288 287 287 287 287 287 287 287 287 287 287 287 287 287 287 287 286 286 286 286 286 286 286 287 289 290 289 289
328 328 327 326 324 323 323 321 320 320 319 318 318 319 321 323 322 320 321 321 320 320 319 318 317 317 314 308 304 303 302 301 300 298 298 297 296 296 295 294 293 293 292 292 291 291 290 290 290 289 289 289 289 288 288 288 288 287 287 287 287 287 287 287 287 287 287 287 287 287 287 287 286 286 286 286 286 286 286 285 287 290 290 290 288
327 327 326 324 323 323 323 322 321 320 319 318 318 319 321 322 322 321 321 321 321 320 319 318 317 317 315 310 305 304 302 301 300 299 298 297 295 295 295 294 293 292 292 291 291 291 290 290 290 289 289 289 289 288 288 288 288 287 287 287 286 286 286 286 287 287 287 287 287 287 286 286 286 286 286 286 286 286 286 285 288 290 289 288 286
326 326 325 323 322 322 322 322 320 320 319 318 319 321 322 322 322 322 321 320 320 320 318 318 317 316 314 310 305 304 302 301 301 300 298 296 295 294 294 293 292 291 292 291 290 290 290 290 289 289 289 289 288 288 288 288 288 287 287 287 286 286 286 286 286 286 286 286 286 286 286 286 286 285 286 286 286 286 285 285 287 288 287 286 285
324 325 324 323 321 321 322 322 320 319 318 317 318 322 323 322 321 321 320 319 319 319 318 318 318 315 311 307 306 304 302 301 300 300 298 295 293 293 293 293 291 291 291 291 290 290 290 289 289 289 289 288 288 288 288 288 287 287 287 287 286 286 286 286 286 286 286 286 286 286 286 286 286 285 285 286 286 286 285 285 285 285 285 285 285
323 324 324 322 321 322 322 320 319 318 317 316 317 320 321 321 321 320 319 319 319 318 318 318 316 313 309 305 304 305 303 300 299 299 298 294 293 292 292 292 291 290 291 291 290 290 290 289 289 289 288 288 288 288 288 287 287 287 287 287 286 286 286 286 286 286 286 286 286 286 286 285 285 285 285 286 285 285 285 285 285 285 285 285 285
323 323 321 321 322 322 321 320 319 318 318 317 316 318 320 320 320 320 319 318 318 318 318 317 314 310 307 303 303 304 303 300 299 298 296 293 292 292 292 291 291 290 290 290 290 290 289 289 289 289 288 288 288 288 287 287 287 287 287 286 286 286 286 286 286 286 286 286 286 286 285 285 285 285 285 285 285 285 285 285 285 285 285 285 285
319 319 319 321 322 322 320 320 319 317 316 317 316 316 318 319 319 319 318 318 318 317 317 317 313 308 305 303 302 303 301 300 298 296 294 292 292 292 291 291 290 290 290 289 289 290 289 289 289 289 288 288 288 287 287 287 287 287 286 286 286 286 286 286 285 286 286 285 285 285 285 285 285 285 285 285 285 285 285 285 285 285 285 285 285
318 317 319 321 322 321 321 319 317 315 315 315 316 316 317 319 318 318 318 317 316 316 316 316 312 307 304 303 302 301 299 298 297 295 293 292 292 291 291 290 290 290 289 289 289 290 289 289 289 289 288 288 287 287 287 287 287 286 286 286 286 286 286 285 285 285 285 285 285 285 285 285 285 285 285 285 285 285 285 285 285 285 285 285 285
318 316 318 321 321 320 320 318 316 315 315 315 315 316 317 318 317 316 316 316 315 314 315 314 309 305 303 302 300 299 297 296 295 293 292 292 291 291 290 290 290 289 289 289 289 289 289 289 289 288 288 288 287 287 287 287 286 286 286 286 286 286 285 285 285 285 285 285 285 285 285 285 285 285 285 285 285 285 285 285 285 285 285 285 285
317 317 318 320 320 319 319 317 315 315 315 315 315 316 317 317 316 316 315 314 312 311 312 310 306 304 303 300 297 296 296 295 294 292 292 291 291 291 290 290 289 289 289 289 289 289 288 288 288 288 288 287 287 287 287 286 286 286 286 286 286 286 285 285 285 285 285 285 285 285 285 285 285 285 285 285 285 285 285 285 285 285 285 285 285
316 317 319 319 318 318 318 317 315 314 314 315 315 316 316 316 316 314 312 309 307 308 309 307 304 304 303 298 295 295 295 294 293 292 291 291 290 290 290 289 289 289 289 289 288 288 288 287 287 287 287 287 287 287 287 286 286 286 286 286 286 286 286 286 286 286 286 285 285 285 285 285 285 285 285 285 285 285 285 285 285 285 285 285 285
317 318 318 318 317 317 317 316 315 313 313 314 315 316 316 316 315 312 306 302 303 305 306 305 304 303 300 296 294 294 294 293 292 291 291 290 290 289 289 289 290 290 289 288 288 287 287 287 287 287 287 287 287 287 287 287 286 286 286 286 286 286 286 286 286 286 286 286 286 285 285 285 285 285 285 285 285 285 285 285 285 285 285 285 285
317 317 316 316 316 316 316 316 315 314 313 314 315 316 316 315 314 308 300 299 302 304 304 304 303 301 297 294 294 294 293 292 291 290 290 289 289 290 290 292 292 290 289 288 287 287 286 286 286 287 287 287 287 287 287 287 287 287 287 287 287 287 287 287 287 287 287 286 286 286 286 285 285 285 285 285 285 284 285 285 284 285 285 285 285
316 315 315 316 316 316 316 316 316 314 313 314 314 315 315 316 313 304 297 298 301 302 302 302 301 298 294 294 294 293 292 291 290 290 290 290 291 293 295 295 293 290 288 287 287 286 286 286 286 286 287 287 287 287 287 287 287 287 287 287 287 287 287 287 287 287 287 286 286 286 285 285 285 285 285 285 285 284 285 284 284 284 285 285 285
313 314 315 315 316 315 315 315 315 314 314 314 314 314 314 315 312 303 296 296 299 300 300 300 297 295 293 294 294 292 291 290 290 290 291 293 296 297 297 296 293 290 289 287 286 286 286 286 286 286 286 287 287 287 287 287 287 287 287 287 287 287 287 287 287 287 287 286 286 286 286 285 285 285 285 285 285 285 285 284 284 284 285 285 285
312 313 315 315 315 314 313 314 314 314 314 314 313 313 313 313 310 302 296 295 296 298 298 296 294 293 294 293 292 291 290 290 291 293 295 297 298 298 297 296 295 292 290 288 287 287 286 286 287 287 286 286 287 287 287 287 287 287 287 287 287 287 287 287 287 287 287 287 286 286 286 286 286 286 286 285 285 285 285 285 285 285 285 285 285
312 314 315 315 314 314 313 313 314 314 314 313 313 313 312 312 308 300 295 294 295 295 295 294 293 293 293 292 291 290 290 291 293 296 298 298 297 297 296 296 295 294 292 290 289 288 287 287 287 287 286 286 286 286 287 287 287 287 287 287 287 287 287 287 287 287 287 287 287 287 287 286 286 286 286 286 286 286 285 285 285 285 285 285 285
313 314 314 314 313 313 312 313 313 314 314 313 313 312 311 312 307 299 294 294 294 294 293 292 292 293 292 291 290 290 291 293 296 297 298 297 297 296 296 295 295 294 294 293 291 289 289 288 288 288 286 286 286 286 287 287 287 287 288 288 288 287 287 287 287 287 287 287 287 287 286 286 286 286 286 286 286 286 286 285 285 285 285 285 285
313 314 313 312 311 311 312 313 313 313 313 312 312 311 311 311 306 298 294 294 294 293 293 292 293 293 292 290 290 290 293 295 297 297 297 297 296 296 295 294 294 294 294 293 292 290 290 289 289 288 287 286 286 286 287 287 287 288 288 287 287 288 287 287 287 287 286 286 286 286 286 286 286 286 286 286 286 285 285 285 285 285 285 284 284
313 314 312 311 310 311 312 312 312 311 311 310 310 310 310 310 305 297 293 294 293 293 292 292 292 292 290 290 290 292 295 296 296 297 297 297 296 296 295 294 293 293 293 292 292 291 291 290 290 288 287 287 287 287 287 287 287 288 288 287 287 287 287 287 287 286 286 286 286 285 286 285 286 286 286 286 286 285 285 285 285 285 284 284 283
313 313 312 311 310 311 312 312 310 310 309 309 309 308 308 308 303 296 293 294 293 292 293 292 292 291 290 290 291 293 295 296 296 297 297 297 296 295 294 293 292 292 291 291 291 291 291 290 290 289 288 288 288 288 288 288 288 287 287 287 287 287 287 286 286 286 286 285 285 285 285 285 285 285 285 285 285 285 285 285 285 284 284 283 283
312 312 312 311 310 311 311 311 309 309 309 309 309 308 306 303 299 294 292 293 293 292 292 292 291 291 290 291 293 294 295 296 296 296 296 296 296 295 294 293 292 291 291 291 290 290 290 290 290 290 289 289 289 289 288 288 288 287 286 286 286 286 286 285 285 285 285 284 284 284 284 285 284 284 284 284 284 285 284 284 284 283 283 282 282
311 311 311 310 310 310 311 310 309 309 309 308 308 306 301 297 294 292 292 293 293 292 292 291 291 291 291 292 293 294 295 295 295 295 296 296 296 295 294 293 292 292 291 291 291 291 290 290 290 290 290 289 289 289 289 288 288 286 285 284 284 284 284 283 283 284 284 283 283 282 283 284 283 282 283 284 283 283 284 283 283 282 282 281 280
310 310 310 310 310 310 310 310 309 309 308 308 307 305 300 294 291 292 292 292 292 292 292 291 291 291 292 293 294 294 294 295 295 295 295 295 295 295 294 293 292 292 292 291 291 291 291 290 290 290 290 289 289 289 289 288 287 285 283 283 283 282 282 282 283 283 282 282 282 281 282 283 283 282 282 283 282 282 283 282 281 281 280 280 279
309 309 309 308 308 309 309 309 308 308 307 307 305 303 300 295 291 291 291 292 292 292 291 291 291 291 292 293 293 294 294 295 295 295 295 295 295 294 293 293 292 292 292 291 291 291 291 290 289 290 289 289 288 288 287 287 285 284 283 282 282 282 282 282 282 283 283 282 281 281 281 283 283 281 281 282 281 281 281 280 280 279 279 279 278
308 307 307 307 306 307 307 307 306 306 306 305 303 302 298 293 290 291 291 291 291 291 290 290 291 291 292 292 293 294 294 294 294 294 294 294 294 293 293 293 292 292 292 291 291 291 290 290 289 289 289 288 288 287 286 286 285 284 282 282 282 282 282 282 282 283 283 283 282 281 281 282 281 280 280 281 280 280 279 279 279 279 278 278 278
307 306 306 306 306 306 306 305 305 304 304 303 302 299 296 292 290 290 290 290 290 290 290 290 290 291 291 292 293 293 294 294 294 294 294 293 293 293 293 292 292 291 291 291 290 290 289 289 288 288 288 288 287 286 285 284 284 283 282 282 282 282 282 282 282 282 282 282 281 280 280 280 280 279 279 279 279 279 278 278 278 278 277 277 277
305 305 305 305 305 305 305 304 303 302 302 301 299 296 293 291 290 289 290 290 289 289 289 289 290 290 291 291 292 293 293 293 293 293 293 293 293 293 292 292 291 291 291 290 290 289 289 289 288 288 287 286 286 285 284 283 283 282 281 281 282 282 281 281 281 281 281 281 280 280 280 279 279 279 279 279 279 278 278 278 277 277 277 277 277
305 305 305 305 304 303 303 301 300 300 298 297 296 293 291 290 289 289 289 289 289 288 289 289 289 290 290 291 292 292 292 292 293 293 293 292 292 292 292 291 291 290 290 289 289 289 288 287 287 286 286 286 285 285 285 284 284 283 281 281 281 281 281 281 280 280 280 280 280 279 279 279 279 279 279 278 278 278 278 277 277 276 276 276 276
304 304 303 303 302 301 300 299 298 298 296 294 293 292 289 288 288 289 289 289 288 288 288 288 289 289 290 291 291 292 292 292 292 292 292 292 292 292 291 290 290 290 289 289 288 288 287 286 286 286 286 285 285 285 285 285 284 283 281 281 281 280 280 280 280 280 280 279 279 279 278 278 278 278 278 278 277 278 277 277 276 276 276 276 276
Wind_Speed
13 12 12 13 12 12 13 13 12 12 13 13 13 13 13 13 12 10 9 8 7 5 5 5 5 6 6 8 10 12 15 15 16 17 17 15 13 11 9 12 16 16 15 14 14 13 12 12 12 11 12 11 11 11 12 13 13 13 15 16 16 17 17 18 19 19 20 20 20 20 20 20 20 21 21 22 23 23 24 24 24 25 25 25 26
15 15 14 14 14 14 15 15 14 15 14 14 14 14 14 13 13 11 9 8 7 6 5 4 5 6 8 11 13 15 16 17 17 17 17 15 13 11 8 7 9 10 10 11 12 12 12 11 11 12 11 11 11 11 12 12 12 13 14 15 16 17 17 18 19 20 20 20 19 19 19 20 20 20 21 21 22 23 23 23 24 25 25 26 26
17 18 17 16 17 17 17 16 16 17 17 16 16 15 14 13 13 12 10 9 8 7 6 5 4 7 10 12 14 16 16 16 16 16 15 14 13 11 10 7 5 5 5 7 8 9 9 7 10 11 10 10 10 11 11 11 12 13 13 14 16 16 17 18 19 19 19 19 19 18 18 19 19 20 20 21 22 22 23 23 24 25 25 25 26
19 19 19 17 17 18 18 18 18 19 19 19 18 16 15 14 13 12 11 10 9 8 8 5 4 7 12 12 14 16 16 16 15 14 13 12 11 9 8 6 4 4 4 5 6 5 4 4 6 6 6 9 11 11 10 11 12 12 13 13 14 15 15 17 18 18 18 17 17 17 17 18 18 19 20 21 21 22 23 23 24 24 25 25 26
21 22 20 20 19 19 20 19 19 20 20 20 18 17 14 13 13 12 12 10 9 8 8 7 4 8 12 12 14 15 15 15 14 13 11 9 8 7 6 4 4 3 4 5 5 4 4 4 5 4 5 7 9 11 11 10 12 12 12 13 13 13 14 16 16 16 16 15 15 15 16 17 17 18 19 21 22 23 24 24 24 24 25 25 26
22 24 22 22 21 20 21 21 20 20 21 20 18 15 14 13 13 12 12 10 10 9 9 8 5 8 12 11 13 14 14 14 12 11 9 8 7 5 4 3 3 2 3 3 3 3 4 4 4 4 5 5 7 9 10 10 10 11 11 12 13 12 13 14 14 14 14 14 14 14 15 16 17 19 20 21 22 23 24 25 25 24 24 25 26
23 24 24 24 23 21 21 21 21 21 20 20 17 14 13 13 13 12 12 12 12 11 10 9 7 9 12 11 13 14 13 12 11 10 8 7 6 4 3 2 1 1 2 2 3 3 3 4 4 5 5 5 5 7 9 9 9 10 11 12 12 11 11 12 12 13 13 13 14 15 16 17 18 19 20 21 22 23 23 24 25 24 25 25 26
26 25 25 26 25 23 22 23 24 24 21 19 17 15 13 13 12 13 14 14 13 12 11 9 8 10 12 12 13 14 13 13 11 10 8 7 5 4 3 2 1 1 1 2 2 3 3 4 4 4 5 5 4 4 6 7 8 9 10 11 11 11 11 11 11 12 12 13 14 15 16 17 18 19 20 20 21 22 23 25 25 25 26 26 27
29 26 27 27 24 24 24 25 29 27 23 19 17 17 15 14 14 14 16 16 15 14 12 10 9 11 13 13 14 15 14 13 12 10 9 7 6 5 4 3 2 2 2 2 2 3 3 3 4 4 5 5 5 5 5 5 7 8 9 10 11 11 10 10 10 11 11 12 14 15 16 17 18 18 19 20 21 22 24 25 25 25 26 26 27
29 27 28 27 24 25 24 26 31 31 25 21 20 19 17 17 18 18 18 19 17 16 14 11 10 13 15 15 15 15 14 13 12 11 9 8 7 6 5 4 3 2 2 2 3 3 3 4 4 5 5 5 5 6 6 6 5 5 8 10 10 10 9 9 10 10 11 12 13 14 15 16 17 18 19 20 21 23 24 25 25 25 25 25 26
29 28 28 27 25 26 25 26 32 32 28 25 23 22 21 20 22 21 20 21 20 19 16 13 12 15 16 16 16 16 15 14 13 11 10 9 8 7 6 5 4 4 3 3 4 4 4 4 4 5 5 5 5 6 6 6 6 3 5 9 9 9 9 9 9 10 11 12 12 14 15 16 16 17 19 20 22 23 24 24 24 24 23 24 25
29 29 29 29 28 28 28 28 30 33 34 31 26 25 24 23 23 24 21 21 23 22 18 16 15 16 17 16 17 17 16 15 13 12 11 10 9 8 8 6 5 5 5 5 5 5 5 5 5 5 5 5 5 6 7 7 6 5 2 6 8 8 8 9 9 9 10 11 12 13 14 15 16 17 19 20 22 23 23 22 23 23 23 24 25
31 31 31 30 29 31 31 30 30 34 37 33 27 27 27 24 25 25 22 23 25 25 21 18 18 19 18 18 18 18 17 16 15 14 13 12 11 10 9 8 7 6 6 6 6 6 6 6 5 5 5 5 5 6 7 8 8 7 4 3 7 7 8 8 7 7 9 10 11 13 13 15 16 17 19 20 22 23 22 21 22 23 24 24 25
33 33 32 29 30 31 31 32 32 33 37 36 29 29 30 27 27 26 24 25 27 27 23 20 20 21 20 20 19 19 18 17 16 16 15 14 13 12 11 10 9 8 8 8 7 7 7 6 6 6 6 6 6 7 8 9 9 8 6 4 4 5 6 7 7 7 9 10 11 12 13 15 16 17 19 21 22 23 22 22 23 24 25 25 26
34 33 31 31 31 30 29 31 32 31 36 38 33 31 32 31 29 25 23 26 29 28 24 21 21 22 21 20 20 19 18 19 19 18 17 16 15 14 13 11 10 10 10 9 9 8 8 8 7 7 7 7 7 7 8 8 9 9 7 6 5 5 5 6 6 7 8 10 11 12 13 15 16 18 19 21 22 23 23 24 25 27 28 28 28
35 34 32 32 32 30 28 30 34 36 37 39 35 31 32 33 30 25 25 28 32 30 25 22 24 24 22 19 17 17 16 19 21 21 19 18 17 16 15 13 12 12 12 11 10 10 9 9 8 8 7 7 8 8 8 8 8 8 8 7 7 6 6 6 7 8 9 10 11 13 14 15 16 18 20 21 22 24 25 26 27 29 30 30 30
36 35 33 32 33 32 28 27 33 37 37 35 30 28 31 33 31 28 28 30 33 33 28 25 26 25 23 18 15 15 16 18 19 20 20 19 19 18 17 15 15 14 13 12 12 11 11 10 9 9 8 8 8 8 9 9 9 8 8 8 7 7 7 7 8 9 10 11 12 13 15 16 17 19 20 22 23 25 26 27 28 31 31 30 30
36 35 33 34 34 32 28 25 26 29 31 30 28 28 31 33 33 31 30 31 33 34 29 26 27 25 25 24 18 15 17 19 17 16 18 20 21 20 18 18 17 16 15 14 13 13 12 11 10 10 9 9 9 9 9 9 9 9 9 9 9 8 8 8 9 10 11 12 13 14 15 17 18 20 21 22 24 25 27 28 29 32 32 29 28
35 34 34 34 32 29 26 25 26 28 30 32 33 34 33 33 34 32 30 31 35 36 30 26 27 26 28 29 23 16 14 16 16 15 14 17 20 20 20 19 18 18 17 15 15 14 13 12 11 10 10 10 10 10 10 10 9 10 10 11 10 10 9 10 11 11 12 13 14 15 16 18 19 20 22 23 24 26 27 29 31 33 31 28 27
33 34 35 34 30 28 26 26 27 29 30 33 34 34 34 33 33 31 30 33 38 37 30 26 27 26 27 30 27 21 16 13 14 14 12 13 15 18 21 20 20 19 18 17 16 15 14 13 12 12 11 11 11 11 11 11 11 11 12 13 12 12 11 12 13 13 14 14 15 16 17 19 20 21 23 24 25 27 27 30 32 30 28 27 27
34 35 34 33 30 28 28 27 27 28 30 33 34 32 32 33 32 31 32 35 38 36 31 28 26 25 26 30 30 27 23 18 15 14 14 13 13 16 18 18 19 20 19 18 17 16 16 14 13 13 13 13 13 13 13 12 12 13 14 14 14 14 14 14 15 16 16 16 17 18 19 21 22 23 24 25 26 27 29 32 30 25 23 24 26
35 35 34 32 30 30 30 28 27 27 29 32 34 32 31 33 33 33 34 35 36 35 33 29 27 26 26 30 32 30 28 24 19 17 17 15 15 17 17 16 17 18 18 18 18 17 17 16 15 15 14 15 15 14 14 14 14 15 15 16 16 16 17 17 18 18 18 19 19 21 22 23 24 25 26 26 27 28 31 31 26 21 21 23 26
37 36 34 32 31 31 31 29 27 27 27 29 33 33 32 34 36 37 37 36 33 33 34 31 28 28 29 30 31 29 28 26 22 19 16 15 17 18 18 16 15 17 18 17 17 17 18 17 16 16 16 16 16 16 16 16 16 16 16 17 17 18 19 20 20 20 20 21 22 23 24 25 26 26 27 27 28 30 31 29 23 20 22 26 31
39 38 35 33 32 33 32 29 26 25 24 26 31 34 35 36 38 40 39 33 30 32 34 33 30 29 29 30 31 28 27 27 25 20 15 14 15 17 19 16 14 17 18 17 17 18 17 17 17 17 17 17 17 17 17 17 17 18 18 18 19 20 21 21 22 22 22 23 24 25 25 26 27 27 27 28 30 30 30 27 23 23 27 31 33
42 40 37 34 34 35 33 28 26 24 24 25 30 34 34 34 35 38 38 31 30 34 36 33 31 30 29 30 32 30 26 24 24 21 17 15 15 16 17 15 13 16 17 16 17 17 17 18 18 18 18 18 18 18 18 19 19 19 20 20 20 21 22 22 23 23 24 24 25 26 26 27 27 27 28 29 31 30 28 26 26 29 31 32 32
40 39 37 35 35 34 30 27 25 25 24 25 30 34 33 32 34 37 36 32 32 36 38 34 32 31 29 29 31 30 26 22 22 21 19 17 16 17 17 14 13 16 17 15 16 17 18 18 18 18 18 19 19 19 20 20 20 21 22 22 22 22 23 23 24 24 25 26 26 27 27 28 27 28 29 30 30 29 27 28 29 31 31 31 31
36 35 34 35 36 32 27 26 25 25 26 26 30 36 37 35 37 38 35 34 36 39 39 35 31 31 30 29 28 28 27 24 21 21 19 17 16 16 15 13 12 14 16 16 16 17 18 19 19 18 18 19 19 20 20 20 21 22 22 23 23 23 24 25 25 26 27 27 27 28 28 28 28 29 30 30 30 29 28 29 30 31 31 30 31
32 33 32 34 35 31 28 27 25 25 27 29 31 36 40 39 39 38 35 36 37 38 38 34 32 32 30 28 27 27 26 24 22 20 18 16 16 14 13 12 12 12 12 14 16 16 17 19 19 17 18 19 19 20 20 21 22 22 23 23 24 25 25 25 26 27 28 28 28 29 29 29 30 30 30 30 30 30 29 29 30 30 30 30 31
30 30 32 35 36 32 30 28 27 26 28 31 32 35 39 40 39 37 35 36 36 36 35 34 33 32 29 27 27 27 25 23 21 19 17 15 14 13 13 12 12 10 9 10 12 13 15 17 17 16 16 18 19 19 20 21 22 22 23 24 26 26 26 26 27 28 29 29 30 30 30 30 30 30 30 30 30 30 30 29 30 30 30 31 31
30 30 33 36 35 31 31 29 27 26 27 30 34 37 38 38 38 36 34 35 35 34 35 34 33 32 29 28 28 26 24 22 20 19 16 14 13 12 12 11 11 11 10 11 11 11 14 17 18 19 19 18 19 20 20 22 23 23 24 25 27 27 27 27 28 28 29 30 31 31 31 31 31 31 31 31 30 30 30 29 29 30 30 31 31
31 32 33 34 31 29 31 30 27 27 27 30 35 38 39 38 38 36 34 34 34 34 35 34 34 33 30 29 27 25 23 21 19 17 15 13 12 11 10 10 10 10 11 12 14 14 16 18 20 22 22 21 21 22 22 24 24 24 24 26 27 27 28 28 29 29 30 31 31 31 32 32 31 31 31 31 31 31 30 29 29 30 30 31 31
33 34 32 32 30 29 31 30 27 26 27 30 35 38 39 38 37 35 34 35 35 34 34 34 33 33 31 29 26 23 22 21 18 16 13 12 10 9 9 8 8 10 11 13 16 18 19 21 23 24 24 23 23 23 24 25 25 24 24 25 27 28 29 29 29 30 30 31 31 32 32 32 32 32 32 31 31 31 30 29 30 30 31 32 32
35 33 31 30 29 29 31 31 29 27 27 31 36 38 40 38 35 35 34 34 34 34 34 34 33 32 30 27 25 23 22 19 16 14 12 10 8 7 7 8 9 11 12 15 17 18 20 22 24 25 25 25 25 25 25 26 26 26 26 26 27 28 29 30 30 31 31 32 32 33 33 33 33 33 32 31 32 32 31 30 30 31 31 32 33
36 32 29 29 30 30 30 31 31 28 27 31 36 38 40 37 34 35 34 32 33 34 34 34 33 32 29 26 24 23 21 18 15 13 10 9 8 8 9 11 12 12 13 15 17 19 20 21 24 26 27 27 27 26 27 27 27 27 28 29 29 30 31 31 32 33 33 33 33 33 33 34 33 33 32 32 32 33 32 31 30 31 32 33 34
35 32 31 31 32 30 29 31 33 30 28 31 35 38 40 38 35 34 33 32 33 34 34 34 33 30 28 25 24 22 19 17 14 12 11 11 11 12 14 14 14 13 14 16 18 20 21 22 24 27 28 29 29 29 29 29 28 28 30 31 32 33 33 33 34 35 34 34 34 33 33 33 34 33 32 32 33 34 33 32 30 31 33 35 36
35 34 33 33 32 30 29 31 33 32 30 31 33 36 38 37 36 35 33 32 33 34 35 34 31 29 27 25 23 21 18 16 15 14 13 12 12 14 15 15 15 15 16 17 18 20 22 24 25 27 29 31 31 31 31 31 30 31 32 33 34 35 35 35 36 37 36 35 34 33 32 33 33 33 32 32 33 33 33 31 30 32 34 36 37
35 34 33 33 32 31 30 31 33 33 32 31 32 35 36 35 35 35 33 32 34 35 34 32 29 27 26 24 22 20 18 18 16 14 12 11 11 12 14 16 17 18 18 19 21 22 23 26 27 28 29 31 32 32 32 33 33 33 33 34 35 37 37 37 38 38 38 37 36 35 34 34 34 34 34 33 32 32 33 32 31 33 36 37 38
34 33 32 32 32 30 30 30 31 33 33 31 31 34 35 33 34 34 33 32 33 33 32 30 28 27 25 24 22 20 20 19 15 11 10 10 10 11 13 16 18 20 21 23 24 25 26 28 28 29 29 31 32 33 32 33 34 34 35 35 37 37 38 39 40 40 40 40 40 39 38 37 37 37 37 36 35 34 33 34 34 35 36 37 38
31 31 30 29 28 28 28 29 31 32 34 32 30 32 33 32 32 33 33 33 33 32 31 29 28 27 25 24 23 22 20 16 13 11 10 10 10 11 12 15 17 20 23 25 26 28 29 30 30 30 30 31 33 33 33 33 34 35 35 37 38 38 38 40 41 42 42 43 43 43 42 41 41 42 42 41 40 39 38 38 38 37 36 37 37
30 29 28 26 25 26 27 29 29 29 30 29 27 28 30 31 32 33 33 33 33 32 30 29 28 27 26 25 23 21 18 15 12 12 12 13 14 14 14 16 17 19 22 24 26 28 30 30 31 31 32 33 34 34 34 35 36 36 36 38 40 40 40 41 42 42 42 43 44 44 44 44 44 45 45 45 45 44 43 43 43 42 39 36 35
29 29 27 25 24 25 27 27 26 25 26 26 25 25 28 31 33 34 33 32 32 32 31 31 30 27 25 24 22 20 17 14 12 13 16 17 18 18 17 17 18 18 20 22 24 26 28 30 32 32 33 35 35 36 36 36 38 38 39 41 43 43 42 43 44 43 43 44 45 45 45 45 46 48 48 48 48 47 47 47 47 46 43 39 36
27 28 28 26 24 25 28 27 25 24 24 24 24 24 27 30 33 34 34 33 33 33 33 33 30 27 25 24 22 20 16 14 14 17 19 20 21 21 19 18 18 19 20 21 22 24 27 30 33 34 35 37 38 38 39 39 40 41 42 43 44 44 44 44 46 46 44 43 43 44 45 46 47 50 50 50 50 50 49 49 49 47 46 43 40
28 28 27 26 25 26 29 28 26 24 24 23 23 25 27 30 33 35 34 34 34 35 34 32 29 27 26 24 21 19 16 16 18 19 19 21 23 23 20 18 18 19 19 21 22 23 25 29 32 33 36 39 41 41 42 43 43 44 44 44 44 45 44 44 45 47 45 42 42 44 48 49 48 49 51 51 51 51 50 49 48 46 45 45 42
28 28 28 27 26 27 29 30 27 25 25 25 25 26 29 32 34 35 35 34 34 34 32 30 28 27 26 23 20 19 18 18 18 18 19 22 24 24 23 21 20 20 20 21 23 24 26 29 32 34 35 38 41 42 42 43 44 44 44 43 42 42 42 41 43 45 43 39 39 43 48 51 48 47 50 52 50 50 50 48 46 45 44 43 41
27 26 28 28 26 25 28 30 30 28 27 27 27 28 30 33 35 35 34 33 33 32 30 29 28 27 25 23 21 19 18 18 18 19 21 23 24 25 25 24 24 24 23 24 25 27 29 32 35 37 37 38 42 43 42 42 43 43 43 42 41 39 39 39 42 44 41 36 37 41 47 51 49 45 49 51 48 47 47 46 44 43 42 41 39
25 24 24 24 23 23 24 27 30 30 29 28 28 28 29 33 35 34 33 32 31 30 30 29 28 26 24 22 21 20 19 19 19 21 23 24 25 26 26 27 28 28 28 28 29 31 34 36 39 42 42 42 45 47 45 43 43 43 42 42 42 41 40 42 45 48 46 42 40 41 46 52 50 46 48 50 47 45 44 43 42 41 39 38 36
22 21 21 21 20 20 22 24 28 29 27 27 27 27 29 32 35 34 33 31 29 28 28 27 26 25 23 22 21 20 19 19 21 24 25 26 26 27 29 30 30 31 31 31 32 34 37 40 43 45 46 47 48 49 48 46 44 42 40 40 42 43 43 44 48 51 51 49 43 40 45 51 47 43 45 46 44 42 42 40 40 38 36 36 34
21 20 19 19 18 20 22 23 24 25 24 25 26 26 28 32 34 34 32 31 29 27 27 26 25 24 23 22 21 19 19 22 24 26 27 28 29 30 32 32 32 33 34 34 35 37 40 42 45 47 49 50 50 49 48 45 41 40 38 39 41 43 43 44 47 50 51 49 43 37 39 44 42 40 44 45 42 42 41 39 38 37 35 34 31
19 18 18 19 19 20 22 22 22 22 22 24 25 24 27 31 34 34 33 31 29 27 27 26 26 24 23 22 20 20 22 25 27 28 29 30 31 32 33 34 34 36 37 37 38 40 42 45 47 49 50 51 50 48 46 43 39 36 35 37 40 40 40 43 46 47 47 46 43 37 35 37 38 40 44 44 42 42 42 40 38 37 35 33 31
18 19 19 19 19 19 20 20 19 20 21 22 22 23 26 30 33 33 32 31 29 27 27 27 26 25 23 21 21 23 26 28 28 29 30 31 33 33 33 34 36 39 40 40 42 45 46 49 50 50 51 50 48 47 45 42 40 35 33 35 36 35 35 38 40 41 41 41 40 36 34 36 38 39 41 41 41 42 41 38 35 33 34 36 36
19 19 19 18 17 16 16 16 17 18 19 20 21 22 25 28 30 30 30 29 28 28 27 27 25 23 22 23 25 28 29 30 31 31 31 31 33 33 33 35 38 41 42 43 45 47 48 49 48 48 47 45 43 42 41 40 39 37 35 34 34 32 34 35 36 37 37 37 35 34 35 37 38 38 38 38 39 41 39 36 34 34 36 39 40
Wind_Direction
227 218 208 200 201 206 208 209 211 204 187 178 176 169 165 165 166 166 162 153 142 130 115 106 107 116 129 134 135 135 135 135 137 137 139 145 145 136 127 121 117 109 99 90 84 83 81 80 75 69 62 52 38 23 19 18 22 23 15 12 12 12 11 11 11 12 12 12 12 13 14 16 18 20 22 23 23 23 23 23 24 23 23 22 19
229 231 221 207 209 214 213 211 209 207 194 182 181 176 173 174 173 173 173 167 156 143 130 113 107 127 138 138 139 138 137 137 139 139 140 144 145 141 135 124 118 114 106 94 86 83 82 81 75 72 63 55 40 27 31 28 25 24 16 13 10 10 12 11 11 10 11 13 14 16 18 20 21 22 23 22 22 22 22 23 24 23 21 20 18
229 236 232 217 218 221 217 214 209 204 197 189 186 183 182 182 181 180 184 182 169 151 139 127 118 140 147 144 144 142 139 140 140 140 142 143 145 144 138 135 122 104 94 83 80 79 82 78 71 73 64 57 48 36 43 46 39 28 19 18 14 15 17 14 12 11 12 14 17 21 21 21 21 21 20 18 17 17 16 18 22 21 20 18 16
227 233 235 226 224 225 220 216 212 204 198 196 192 188 189 190 189 185 188 192 179 159 149 142 137 154 156 150 149 147 143 143 143 143 145 144 144 142 138 135 118 86 60 54 63 67 63 40 45 59 55 58 60 53 48 49 49 37 26 26 24 29 25 15 12 12 14 15 17 20 19 19 18 17 16 14 14 15 14 15 18 19 18 17 15
226 229 234 232 232 230 221 217 214 207 201 201 198 194 193 194 193 189 190 197 187 169 158 152 152 166 165 157 154 151 148 149 148 148 147 146 145 141 136 123 98 69 45 40 45 42 30 21 22 23 31 51 63 62 54 49 47 35 27 29 30 34 24 12 10 11 13 14 16 17 16 17 17 16 15 14 15 15 15 14 15 16 16 14 13
226 227 231 232 235 233 225 222 219 212 203 200 200 197 195 194 200 203 199 199 192 182 170 161 160 173 174 168 161 157 155 156 154 154 153 153 152 144 136 118 96 69 44 31 27 20 13 13 10 11 19 37 53 60 61 54 40 26 25 32 32 26 16 10 11 12 15 16 16 17 18 18 19 19 17 17 17 17 16 14 13 15 15 13 10
225 224 228 231 237 237 232 231 228 219 208 201 199 198 198 200 209 216 208 202 199 195 184 172 170 179 182 179 169 164 163 164 163 163 163 163 158 151 142 126 102 53 14 4 7 4 4 4 359 0 2 12 33 50 57 47 32 27 32 37 32 23 18 16 15 17 18 18 18 20 21 21 21 22 21 19 17 17 15 11 9 9 9 8 7
227 226 229 231 237 240 237 237 234 225 212 205 205 204 207 212 216 222 219 212 208 205 195 184 181 181 188 188 176 174 174 173 175 175 176 175 170 170 170 173 213 299 323 333 348 348 353 350 346 348 347 355 2 15 37 36 30 33 36 37 32 29 29 21 20 22 21 21 21 23 24 23 23 22 21 19 16 14 11 8 6 5 6 5 5
229 232 233 233 238 242 238 237 235 225 213 211 215 213 217 222 220 225 229 223 216 212 206 195 191 184 189 196 186 183 184 181 183 185 187 188 186 192 199 211 239 266 293 316 324 327 335 332 333 337 338 345 342 341 353 5 24 35 37 40 38 37 35 25 25 25 22 25 23 24 25 24 22 20 19 16 12 10 9 7 6 6 8 6 4
231 236 234 232 238 243 239 238 235 225 216 217 219 218 221 222 219 222 228 228 220 214 214 208 202 192 190 199 197 191 190 189 193 195 197 199 201 209 217 228 246 266 281 291 299 305 312 313 317 321 325 330 331 336 335 336 356 30 45 47 44 42 41 33 29 25 23 25 23 24 24 22 20 18 15 12 9 9 9 8 8 8 8 4 2
235 237 233 233 236 237 236 238 236 227 220 219 218 218 218 217 217 220 223 227 221 212 216 218 212 202 195 200 202 198 197 198 200 204 207 211 214 220 227 238 248 259 269 272 279 287 291 295 299 303 311 318 322 330 330 330 332 343 47 53 46 44 43 38 33 26 22 23 23 22 20 18 16 12 11 10 10 9 8 9 9 8 5 2 0
237 238 233 235 238 240 240 239 237 231 224 220 220 223 220 218 220 220 221 227 222 211 215 222 217 206 199 203 206 202 203 206 208 211 216 220 223 228 233 240 248 253 258 262 266 272 275 279 284 290 298 308 317 324 322 324 327 321 7 52 50 41 38 40 38 26 21 20 19 17 14 11 9 8 9 8 8 8 7 6 4 3 2 -0 358
237 237 233 234 239 243 242 238 236 234 229 222 224 228 221 220 222 219 223 232 224 211 214 221 216 207 201 203 207 206 208 211 215 219 222 227 230 233 237 241 247 249 251 254 256 260 264 268 274 280 288 302 314 319 321 322 327 326 322 23 46 43 38 37 32 19 17 14 9 8 5 3 5 6 5 4 3 4 3 1 360 359 359 358 356
234 233 232 233 237 241 239 235 233 233 230 224 227 230 221 219 220 219 224 230 223 214 215 220 217 214 208 203 204 208 214 218 220 224 227 230 234 236 239 241 244 246 247 248 250 253 258 262 266 275 284 297 310 315 322 323 323 325 320 328 3 25 32 31 24 12 5 2 356 355 357 359 1 -0 359 358 358 359 359 357 355 355 355 355 354
229 226 229 232 236 239 237 234 232 232 229 226 227 230 224 220 219 226 232 226 218 216 219 222 221 217 208 204 207 209 216 223 225 227 230 232 234 236 238 240 242 243 243 244 247 249 252 258 262 271 283 294 307 313 316 319 316 315 314 311 315 328 348 3 3 354 348 346 344 346 350 353 353 352 352 352 353 353 353 351 349 349 351 350 348
228 226 229 234 237 238 235 236 235 231 228 225 224 226 227 224 222 233 242 230 218 217 218 220 223 217 205 201 209 211 219 229 229 229 232 233 234 236 237 238 239 240 241 242 245 247 249 255 261 268 280 289 299 306 307 308 307 301 296 295 299 307 317 328 333 332 333 333 336 340 343 344 345 345 345 346 347 346 345 345 345 345 345 344 342
230 229 231 235 238 237 235 238 236 230 226 224 225 228 230 230 231 239 246 239 226 220 217 218 224 220 208 203 204 207 221 232 230 230 234 234 235 237 237 238 238 239 241 242 242 246 248 252 259 266 276 285 293 299 300 299 296 287 278 280 288 297 305 310 314 317 320 324 330 334 334 336 338 338 339 340 340 340 340 341 340 337 338 341 339
232 232 233 234 234 232 231 234 237 235 232 234 241 243 239 235 235 239 244 242 230 223 222 223 227 221 213 215 216 214 221 226 225 224 228 233 237 238 237 237 239 240 242 242 243 246 248 252 257 264 272 281 289 292 293 293 288 277 269 270 276 282 289 294 300 305 310 317 322 325 328 330 330 331 333 333 333 335 337 336 333 330 333 339 336
232 231 229 227 226 226 228 233 241 245 244 246 251 251 246 239 235 236 240 238 226 223 227 233 234 226 216 218 222 224 225 225 225 222 222 233 241 240 238 240 240 242 243 244 246 247 249 253 257 264 271 278 284 286 287 288 284 275 267 267 270 273 278 284 291 297 303 309 314 318 321 321 323 325 325 326 328 331 332 330 327 326 330 335 331
226 222 219 221 225 228 231 235 242 248 251 252 253 252 246 236 233 233 237 234 224 222 231 239 238 234 224 219 220 225 230 232 230 230 235 243 245 241 242 244 243 244 247 247 249 249 251 254 258 264 270 275 280 282 285 287 286 277 269 267 269 271 275 280 286 291 297 303 308 312 314 314 316 318 319 322 325 327 328 325 323 324 328 331 329
217 215 217 223 230 233 233 235 240 246 252 253 251 250 241 231 230 232 232 229 223 222 233 242 241 241 235 225 221 225 232 237 234 231 238 248 253 253 252 249 245 247 251 251 252 252 253 256 259 264 269 274 278 281 284 288 286 279 271 269 270 273 276 279 283 287 292 298 303 306 307 309 311 313 315 318 321 324 323 320 321 324 326 327 328
216 218 222 228 233 235 234 234 238 246 252 252 247 244 237 230 230 232 230 227 225 227 234 239 241 244 243 233 226 227 232 238 240 239 242 250 258 264 266 259 250 252 254 253 254 255 256 259 260 264 268 273 277 280 284 285 285 282 276 273 272 274 276 278 281 285 290 295 299 301 303 305 308 310 312 316 320 321 318 317 319 323 323 325 327
220 222 227 234 235 236 236 236 240 245 249 248 244 242 236 231 230 228 223 223 228 232 233 236 239 241 244 239 231 232 237 241 246 250 253 258 261 264 270 266 253 252 255 255 254 255 258 260 262 265 269 272 276 279 282 284 285 284 280 277 276 276 277 278 281 284 289 293 296 298 301 304 306 309 312 316 318 316 314 316 319 320 322 324 324
222 226 233 237 237 238 238 238 241 242 243 243 243 243 236 232 234 225 216 219 229 231 230 234 238 238 241 239 233 235 239 243 248 254 258 260 262 262 267 266 249 249 258 256 255 257 259 261 263 266 268 272 275 278 281 283 284 285 284 281 279 279 279 281 284 287 290 293 296 298 301 304 307 310 313 315 314 312 314 319 320 320 320 320 319
226 232 237 240 240 239 237 239 244 245 246 245 244 242 231 227 231 222 214 224 235 231 229 234 236 236 238 236 234 234 239 245 249 254 256 255 254 255 261 262 250 252 263 262 257 258 258 262 265 267 269 273 276 278 280 283 284 285 286 284 283 283 284 286 289 291 293 295 297 300 303 305 307 311 313 312 311 311 316 321 320 318 317 316 315
231 235 241 244 241 236 236 243 247 246 250 251 246 240 230 223 224 221 223 235 240 233 231 231 233 234 235 235 235 236 241 249 251 252 256 253 251 254 258 259 251 252 264 266 260 260 263 267 269 270 273 275 277 279 281 283 284 285 286 285 285 286 288 290 293 294 295 296 299 301 303 305 308 310 310 309 310 313 318 320 316 313 313 313 313
239 241 244 243 234 232 242 249 247 246 251 255 249 240 233 228 223 220 228 238 238 235 232 230 231 232 232 234 236 237 243 249 250 252 255 253 251 256 258 258 253 251 262 269 266 268 272 275 275 275 276 278 279 281 282 283 284 286 286 286 287 289 291 293 295 296 296 298 300 302 304 306 308 308 308 308 311 314 316 315 311 310 311 311 311
244 243 241 238 235 240 252 252 249 252 252 253 249 240 236 233 226 224 231 236 236 235 232 230 230 229 231 235 236 237 241 245 249 252 254 251 251 253 252 254 253 248 257 270 277 282 282 279 280 279 278 281 282 282 283 284 285 287 288 288 290 292 293 294 295 296 297 299 301 302 303 305 306 307 307 309 311 312 312 311 309 309 310 310 311
241 240 240 240 239 245 253 251 248 251 251 250 246 239 235 231 228 230 235 236 235 234 231 229 229 227 230 235 235 236 239 241 246 249 249 248 248 248 245 247 248 244 245 261 283 297 292 287 288 285 284 287 285 284 285 285 287 289 289 289 291 293 294 295 296 296 298 300 301 301 303 304 305 306 307 308 308 309 309 309 308 308 309 309 310
239 241 241 240 240 245 250 247 244 247 251 250 243 237 235 232 232 234 234 233 234 232 229 227 226 226 230 234 234 235 236 239 243 245 244 243 244 244 246 249 251 251 248 253 273 291 289 288 290 290 294 295 290 289 289 288 289 291 291 291 293 294 295 296 297 298 299 300 300 301 302 303 303 304 304 305 306 306 307 307 306 307 307 307 309
239 243 243 240 241 247 249 245 242 245 248 248 241 235 235 234 234 234 231 231 232 230 226 224 223 225 229 233 233 232 233 236 239 240 238 238 240 242 247 253 256 261 263 266 271 277 279 282 284 288 294 296 294 293 292 292 292 294 294 295 295 296 297 299 300 300 300 300 300 301 301 301 302 302 302 303 304 304 304 305 305 305 305 305 308
240 243 242 239 239 245 248 245 243 245 245 244 240 236 236 236 232 230 230 230 230 227 223 221 222 226 230 232 230 228 231 233 235 235 233 233 236 241 249 258 265 271 277 278 275 275 277 279 281 286 292 295 295 296 295 295 296 298 298 297 298 299 300 302 302 301 301 301 300 301 301 301 300 300 300 301 302 301 302 303 303 303 303 304 306
241 243 239 237 240 244 246 243 242 245 246 243 238 235 237 236 230 229 231 230 227 224 221 221 224 228 230 230 227 227 229 230 228 227 226 227 232 240 253 264 270 275 282 282 278 277 278 280 283 287 291 294 296 296 296 297 299 301 300 300 300 301 301 302 302 302 302 302 301 300 300 300 299 299 299 300 300 299 301 303 302 302 302 304 305
241 242 238 239 244 245 243 241 242 244 245 243 237 233 235 236 230 228 230 228 225 223 221 222 225 228 229 226 225 226 226 225 221 217 216 219 226 237 250 259 266 274 282 283 281 281 281 282 285 289 291 294 295 295 295 297 301 303 302 302 302 302 302 302 302 303 303 302 301 300 300 299 298 298 298 298 298 298 300 302 302 301 302 303 304
238 240 240 242 242 240 239 242 243 242 243 244 238 231 232 236 232 229 230 229 226 224 222 224 226 227 225 223 224 224 222 217 210 206 210 219 232 246 255 259 264 272 279 282 284 285 284 283 285 288 292 293 294 294 295 297 300 302 301 302 302 302 302 303 302 302 301 301 301 300 300 299 298 298 298 298 298 298 301 302 302 302 302 303 304
235 237 240 241 238 235 237 242 243 241 242 244 241 234 231 232 230 229 230 230 228 225 224 225 225 224 222 222 222 219 213 207 204 208 218 233 250 262 266 264 262 266 273 278 282 284 285 286 286 288 291 293 294 295 296 298 300 300 300 301 301 301 302 302 301 301 301 301 300 300 300 298 298 298 298 299 299 300 301 303 303 303 303 303 303
232 235 239 238 234 233 237 242 242 240 240 243 243 238 232 228 227 227 229 231 229 226 225 224 223 221 220 219 216 209 204 204 207 217 232 253 268 276 278 274 270 268 269 271 274 277 282 284 286 289 291 292 293 293 296 298 300 300 301 301 302 302 303 302 302 301 301 301 301 301 300 299 300 300 300 301 302 302 303 304 306 306 304 304 303
232 236 238 235 233 235 240 243 243 240 239 242 245 240 234 228 225 226 227 230 229 226 223 221 218 217 217 214 208 204 204 207 212 226 245 262 276 286 289 287 285 281 276 273 272 273 276 279 283 287 290 292 292 293 295 298 300 301 302 302 301 302 303 303 302 302 303 302 302 302 301 301 301 300 300 303 304 305 305 306 306 305 304 304 302
234 237 235 232 235 240 244 247 245 240 237 241 244 241 236 231 228 227 227 227 226 224 220 217 215 216 214 210 207 205 205 208 217 234 251 265 277 288 295 298 297 292 287 283 279 276 276 278 281 285 289 292 293 294 297 299 299 300 301 301 300 300 302 302 303 303 304 304 304 303 303 303 302 302 302 303 305 307 307 307 306 305 304 303 301
236 234 229 231 238 243 246 247 243 237 235 238 241 241 240 235 230 229 228 226 225 222 218 216 216 215 212 207 205 204 205 213 226 245 261 270 276 283 292 301 303 299 294 291 287 283 282 281 282 285 289 292 293 294 296 297 298 298 300 300 299 299 301 301 302 303 303 304 304 304 304 305 305 305 304 304 306 307 308 308 308 307 306 304 302
235 229 225 232 239 241 242 239 233 230 232 235 238 241 242 239 232 229 229 228 225 221 218 217 214 211 208 205 203 205 211 222 241 262 271 275 278 281 289 300 305 303 298 295 292 290 287 286 285 286 290 292 292 294 295 296 297 298 299 299 298 300 302 301 300 301 302 304 303 303 304 305 305 304 304 305 306 307 308 308 308 308 308 306 305
235 230 229 235 240 240 237 232 229 230 234 238 241 242 244 241 234 229 228 227 225 223 220 217 212 207 205 205 206 210 219 237 256 269 276 281 283 282 288 302 308 305 301 298 298 296 295 291 289 290 292 291 291 293 294 294 296 297 298 298 299 300 301 300 299 300 302 303 302 302 303 303 303 302 302 303 304 306 306 307 306 306 306 306 307
236 235 234 235 240 240 233 228 229 233 235 241 244 243 241 238 233 230 229 227 225 222 219 216 212 209 208 210 214 222 235 249 261 271 282 289 287 282 284 296 304 304 301 300 301 301 300 296 294 295 295 293 293 294 295 295 296 298 298 298 297 298 298 297 297 299 301 301 300 298 299 300 299 299 300 301 302 304 304 304 304 304 305 306 308
238 238 235 234 239 239 231 225 226 230 233 238 242 241 236 231 230 230 230 229 226 222 218 216 215 213 214 218 225 233 243 253 265 279 291 294 292 287 283 285 292 295 295 295 297 300 300 300 300 299 299 299 299 298 298 300 298 298 297 295 294 295 295 294 294 296 298 298 296 293 294 297 297 295 296 299 300 301 302 303 303 303 303 305 307
240 240 237 235 237 238 234 229 229 231 234 236 238 239 233 228 227 229 230 230 227 223 221 219 217 217 220 226 232 239 249 260 273 285 294 298 297 291 285 283 285 288 288 288 290 292 296 299 301 299 300 304 304 302 303 304 299 296 295 293 291 291 290 290 291 292 293 291 289 288 290 294 295 292 293 296 298 300 302 302 301 301 302 304 307
240 241 239 237 236 239 242 241 238 237 238 239 239 239 233 227 226 227 227 228 226 225 223 221 219 220 224 231 238 247 258 270 282 291 296 299 298 293 287 283 284 286 287 286 286 289 293 297 299 298 298 301 302 302 303 302 297 294 293 291 290 288 288 289 289 290 290 287 286 285 286 292 295 291 291 296 299 301 301 299 298 299 301 304 307
241 240 239 239 241 246 250 249 245 241 240 241 241 239 232 226 225 224 223 223 222 221 219 217 218 221 226 234 243 254 267 281 291 294 295 297 298 295 291 287 285 287 287 287 288 290 294 297 298 297 297 298 300 301 301 300 297 295 292 291 292 291 292 293 292 292 293 291 290 285 283 291 295 290 291 298 300 300 299 297 298 300 301 304 306
239 238 240 244 248 251 250 247 243 241 239 239 239 237 229 224 224 223 221 220 218 215 214 215 219 223 230 238 248 261 276 287 292 293 294 296 297 296 293 290 288 288 288 289 290 292 295 296 295 296 296 297 298 298 299 297 295 294 293 291 292 292 292 292 291 292 293 293 293 288 284 291 295 291 294 302 303 301 300 299 300 302 303 304 306
239 241 246 249 250 250 248 243 240 238 238 238 236 231 224 221 222 222 221 219 217 214 214 217 222 226 232 241 253 268 279 285 290 293 294 295 296 295 293 290 289 289 289 291 292 293 294 294 293 294 295 296 297 297 297 295 293 292 288 286 287 288 288 287 287 289 291 291 292 290 283 284 288 290 296 302 302 300 301 301 302 303 304 306 307
240 243 246 248 248 248 246 242 239 237 237 237 234 229 224 221 220 220 220 220 217 215 215 219 224 228 234 245 259 269 275 281 288 292 293 294 295 294 291 289 288 289 290 293 294 295 295 296 296 297 298 298 298 297 296 295 295 295 293 292 294 294 290 287 287 289 292 293 295 295 288 285 289 292 295 299 299 299 301 302 303 303 304 306 308
241 246 247 246 247 248 247 243 241 239 236 232 228 228 227 223 221 220 221 220 218 217 218 221 225 231 240 252 261 267 273 280 287 290 291 291 291 290 287 285 286 288 292 294 295 296 297 298 298 299 299 299 300 299 300 301 302 305 305 303 304 301 294 290 290 290 290 293 298 301 297 295 296 296 295 294 295 298 301 301 300 300 301 304 306